EST,Max TemperatureF,Mean TemperatureF,Min TemperatureF,Max Dew PointF,MeanDew PointF,Min DewpointF,Max Humidity, Mean Humidity, Min Humidity, Max Sea Level PressureIn, Mean Sea Level PressureIn, Min Sea Level PressureIn, Max VisibilityMiles, Mean VisibilityMiles, Min VisibilityMiles, Max Wind SpeedMPH, Mean Wind SpeedMPH, Max Gust SpeedMPH,PrecipitationIn, CloudCover, Events, WindDirDegrees
2013-2-1,37,26,15,32,12,7,100,68,46,30.38,30.31,29.94,10,9,1,17,8,25,1.33,2,Snow,256
2013-2-2,32,23,14,32,21,12,100,89,68,30.34,30.19,30.06,10,7,0,7,1,,0.77,5,Rain-Snow,239
2013-2-3,35,32,30,32,28,19,100,85,60,30.16,30.04,29.96,10,7,1,16,7,24,1.27,7,Rain-Snow,254
2013-2-4,37,27,17,32,24,18,100,80,60,30.14,30.05,29.96,10,10,8,5,1,,0.00,3,,322
2013-2-5,51,40,30,37,33,30,100,82,50,30.03,29.96,29.93,10,10,8,13,2,16,0.00,5,,235
2013-2-6,53,38,24,32,28,23,100,73,30,30.23,30.17,30.04,10,10,6,7,1,,0.00,2,,219
2013-2-7,57,44,30,39,32,27,93,65,35,30.19,30.10,29.97,10,10,10,8,2,,0.00,3,,96
2013-2-8,50,42,35,45,35,27,100,80,54,30.28,30.05,29.91,10,9,2,15,3,23,0.03,7,Rain,309
2013-2-9,50,37,24,27,22,16,93,62,26,30.37,30.31,30.26,10,10,10,7,2,,0.00,2,,349
2013-2-10,57,42,28,43,28,16,93,63,20,30.27,30.17,30.02,10,10,4,14,3,20,0.09,3,Rain,105
2013-2-11,55,47,39,52,40,25,100,78,41,30.14,30.04,30.00,10,9,2,15,3,20,0.12,4,Rain,235
2013-2-12,50,39,28,36,28,21,100,66,32,30.20,30.08,29.90,10,10,10,6,1,,0.00,2,Rain,289
2013-2-13,44,40,35,45,36,30,100,87,66,29.98,29.80,29.67,10,8,1,14,3,22,0.29,7,Rain,295
2013-2-14,50,38,26,32,30,27,100,76,50,30.07,30.02,29.98,10,10,6,12,3,,0.00,5,,224
2013-2-15,48,36,24,39,31,25,100,85,62,30.11,30.07,30.03,10,9,4,12,2,16,0.08,4,Rain,298
2013-2-16,33,28,24,30,20,5,100,69,38,30.08,30.03,29.98,10,9,0,15,4,23,1.08,5,Snow,308
2013-2-17,35,27,19,16,10,7,86,52,30,30.25,30.18,30.08,10,10,10,17,8,24,0.00,4,,282
2013-2-18,55,35,15,27,20,14,93,55,30,30.31,30.19,29.99,10,10,10,13,2,18,0.00,1,,174
2013-2-19,48,40,32,41,27,14,100,62,27,30.14,29.99,29.93,10,8,2,23,8,36,0.22,3,Rain,244
2013-2-20,37,30,21,18,12,9,86,49,30,30.23,30.19,30.14,10,10,10,13,6,16,0.00,0,,261
2013-2-21,50,34,17,37,19,12,100,63,24,30.27,30.17,30.05,10,9,4,8,1,,0.20,1,Rain,80
2013-2-22,55,46,37,46,41,37,100,81,58,30.12,30.05,30.01,10,10,3,7,4,,0.08,8,Rain,107
2013-2-23,48,46,44,46,43,32,100,88,61,30.02,29.98,29.89,10,6,2,8,2,,0.00,7,Rain,256
2013-2-24,51,40,28,32,24,18,93,58,26,30.10,30.04,29.91,10,10,10,10,3,,0.00,0,,297
2013-2-25,55,40,24,30,25,23,93,63,30,30.09,30.01,29.88,10,10,10,10,3,,0.00,1,,87
2013-2-26,57,49,41,48,39,30,100,76,53,29.87,29.64,29.46,10,9,3,20,10,33,0.29,7,Rain,86
2013-2-27,41,38,35,36,33,32,93,82,70,29.83,29.78,29.66,10,10,5,14,9,20,0.02,8,Rain,237
2013-2-28,35,34,32,32,27,25,100,81,65,29.98,29.88,29.78,10,9,3,14,7,20,0.11,7,Rain-Snow,270